Location: Roanoke
(37.2710°N, 79.9420°W)
Time: 02:26:29
(UTC-05:00)

Courier 1B Rocket - Pass Details

Date: 25 November 2019
Orbit: 921 x 1202 km, 28.2° (Epoch: 14 December)

Event Time Altitude Azimuth Distance (km) Brightness Sun altitude
Rises 12:25:45 0° 231° (SW) 3,574 8.5 31.8°
Reaches altitude 10° 12:28:41 10° 219° (SW) 2,658 8.3 31.7°
Maximum altitude 12:34:00 28° 163° (SSE) 1,754 8.0 31.6°
Drops below altitude 10° 12:39:35 10° 107° (ESE) 2,805 7.6 31.4°
Sets 12:42:46 0° 96° (E) 3,809 8.1 31.3°
